This is the latest recevied weather packets stored in our database for station/object K5IDL. If no packets are shown the sender has not sent any weather packets the latest 10 day(s).
| Time | Temp. | Humidity | Pressure | Rain* | Wind** | Luminosity | Snow |
|---|---|---|---|---|---|---|---|
| 1777498592 | 17.22° C | 82% | 1013.9 hPa | 0 mm | - | 90 W/m² | - |
| 1777498288 | 17.22° C | 81% | 1014 hPa | 0 mm | - | 102 W/m² | - |
| 1777497987 | 17.22° C | 81% | 1014 hPa | 0 mm | - | 130 W/m² | - |
| 1777497682 | 17.78° C | 83% | 1014.2 hPa | 0 mm | - | 139 W/m² | - |
| 1777497379 | 17.22° C | 83% | 1014.1 hPa | 0 mm | - | 159 W/m² | - |
| 1777497075 | 17.22° C | 85% | 1014.2 hPa | 0 mm | - | 138 W/m² | - |
| 1777496772 | 16.67° C | 86% | 1014.4 hPa | 0 mm | - | 102 W/m² | - |
| 1777496469 | 16.67° C | 87% | 1014.8 hPa | 0 mm | - | 106 W/m² | - |
| 1777496165 | 16.67° C | 86% | 1014.7 hPa | 0 mm | - | 67 W/m² | - |
| 1777495861 | 17.22° C | 87% | 1014.4 hPa | 0 mm | - | 155 W/m² | - |
| 1777495557 | 17.22° C | 87% | 1014.3 hPa | 0 mm | - | 198 W/m² | - |
| 1777495253 | 16.67° C | 89% | 1014.3 hPa | 0 mm | - | 189 W/m² | - |
| 1777494951 | 16.67° C | 89% | 1014.7 hPa | 0 mm | - | 101 W/m² | - |
| 1777494648 | 16.67° C | 88% | 1014.8 hPa | 0 mm | - | 165 W/m² | - |
| 1777494345 | 16.67° C | 88% | 1015.2 hPa | 0 mm | - | 167 W/m² | - |
| 1777494042 | 17.22° C | 88% | 1015.3 hPa | 0 mm | - | 110 W/m² | - |
| 1777493739 | 17.22° C | 88% | 1015.5 hPa | 0 mm | - | 167 W/m² | - |
| 1777493438 | 17.22° C | 89% | 1015.7 hPa | 0 mm | - | 128 W/m² | - |
| 1777493133 | 17.22° C | 84% | 1016.1 hPa | 0 mm | - | 51 W/m² | - |
| 1777492829 | 17.22° C | 80% | 1016.4 hPa | 0 mm | - | 60 W/m² | - |
| 1777492521 | 17.22° C | 80% | 1017.2 hPa | 0 mm | - | 13 W/m² | - |
| 1777492216 | 17.78° C | 78% | 1016.6 hPa | 0 mm | - | 25 W/m² | - |
| 1777491914 | 17.78° C | 78% | 1016.4 hPa | 0 mm | - | 27 W/m² | - |
| 1777491610 | 17.78° C | 78% | 1016 hPa | 0 mm | - | 29 W/m² | - |
| 1777491308 | 17.78° C | 78% | 1015.7 hPa | 0 mm | - | 32 W/m² | - |
* Rain latest hour (hover to see other rain measurements)
** Current wind speed in m/s (hover to see current wind gust speed)